Location: Unspecified
(0.0000°N, 0.0000°E)
Time: 18:48:46
(UTC+00:00)

USA 125 - Visible Passes

Search period start: 17 May 2026 00:00
Search period end: 27 May 2026 00:00
Orbit: 363 x 39930 km, 64.0° (Epoch: 9 October)

Date Brightness Start Highest point End Pass type
(mag) Time Alt. Az. Time Alt. Az. Time Alt. Az.
17 May ? 19:29:51 10° N 19:40:59 24° NE 19:41:47 24° NE visible
18 May ? 19:22:54 10° N 19:33:56 24° NE 19:35:06 22° ENE visible
19 May ? 19:15:59 10° N 19:26:52 23° NE 19:28:24 21° ENE visible
20 May ? 19:09:02 10° N 19:19:49 22° NE 19:21:44 19° ENE visible
21 May ? 19:02:06 10° N 19:12:45 21° NE 19:15:02 18° ENE visible
22 May ? 18:55:11 10° N 19:05:42 21° NE 19:08:22 16° ENE visible
23 May ? 18:48:16 10° N 18:58:38 20° NE 19:01:41 14° ENE visible
24 May ? 18:41:21 10° N 18:51:33 19° NE 18:55:00 12° ENE visible
25 May ? 18:34:27 10° N 18:44:28 19° NE 18:48:19 11° E visible
26 May ? 18:27:34 10° N 18:37:23 18° NE 18:41:24 10° E visible
